Lid_Strength_Index
3 4 4 4 4 4 4 4 4 4 4 4 5 5 5 5 5 5 5 5 5 5 5 5 5 4 6 7 5 4 -1 -1 3 5 4 4 5 6 9 8 7 8 8 6 5 5 5
3 3 3 3 3 3 3 4 4 4 4 5 5 5 5 5 5 5 5 5 5 5 6 5 5 4 5 8 3 4 2 3 3 3 3 3 5 5 7 8 8 6 7 6 5 5 6
4 4 4 3 3 4 3 3 4 5 5 5 5 6 5 5 5 5 5 5 5 5 6 5 5 5 8 8 3 3 2 3 3 3 3 2 3 5 5 7 5 6 7 6 6 6 7
4 4 4 4 4 4 4 4 4 4 4 5 5 5 5 5 5 5 6 5 5 6 6 5 4 7 9 4 5 3 3 3 2 2 2 3 2 4 5 5 6 7 8 11 7 6 6
4 4 4 4 4 4 4 4 4 4 4 4 4 5 5 5 5 5 5 5 5 6 4 5 6 9 8 4 6 4 3 4 3 2 2 1 3 6 5 9 11 9 12 11 9 6 6
4 4 4 4 4 4 4 4 4 4 4 4 4 4 5 5 5 5 5 5 4 5 5 5 6 9 7 6 6 5 3 3 3 4 4 4 6 8 9 11 15 12 12 10 10 8 7
4 4 4 4 4 4 4 4 4 4 4 4 4 4 5 5 5 5 6 6 7 9 9 8 8 7 5 4 4 5 3 4 4 5 8 6 9 10 9 9 9 9 9 9 8 7 8
4 4 4 4 4 4 4 4 4 4 4 4 5 5 5 5 5 5 7 8 6 6 9 7 6 6 5 3 5 5 4 6 6 8 7 8 10 7 7 7 8 8 9 9 8 6 8
4 4 4 4 4 4 4 4 4 4 4 5 5 5 5 6 6 6 6 5 3 5 9 7 6 6 5 5 5 6 5 5 7 8 8 9 8 6 7 8 9 9 10 10 9 8 8
3 3 4 4 4 4 4 4 4 5 5 5 5 5 6 6 7 6 6 4 3 5 11 9 8 6 5 5 6 3 3 4 6 8 8 8 7 7 7 8 9 11 7 7 8 10 13
3 3 3 4 4 4 4 5 5 5 5 5 5 5 6 7 8 7 5 4 4 6 15 6 8 4 4 6 5 5 3 5 7 7 8 8 8 8 8 8 7 9 7 8 9 11 11
3 3 3 3 4 4 4 5 5 5 5 5 5 6 6 5 7 5 5 5 5 11 13 8 7 8 9 7 6 5 5 4 4 6 7 7 5 7 8 6 7 6 8 9 10 11 14
3 3 3 3 4 4 4 4 5 5 5 5 6 6 7 5 6 5 5 6 11 13 6 9 9 8 9 9 8 7 7 7 9 12 11 8 7 7 6 8 7 8 11 14 15 15 15
3 3 3 3 3 4 4 4 4 5 5 6 6 7 6 5 5 5 6 9 13 9 8 6 7 8 9 9 9 8 9 9 7 8 10 11 12 8 6 8 9 9 11 14 18 16 14
3 3 3 3 3 4 4 4 4 4 5 6 7 4 4 4 4 5 8 11 11 8 7 7 8 9 9 8 8 9 10 10 8 7 10 11 10 6 6 7 7 9 12 9 13 13 14
3 3 4 4 4 4 4 3 4 4 5 6 6 4 4 2 4 6 9 11 8 7 7 7 9 8 10 8 9 9 10 8 8 7 7 9 11 8 7 7 8 9 8 13 13 17 16
3 3 4 4 4 4 4 4 4 4 5 6 4 5 4 3 5 8 12 11 8 7 6 7 8 9 9 9 9 10 9 7 7 8 8 9 11 10 8 10 11 11 11 11 12 13 16
3 3 3 4 4 4 4 4 4 4 5 5 4 7 2 3 8 8 10 9 8 7 7 7 7 7 8 9 10 10 9 8 6 7 9 8 11 13 10 8 7 9 10 11 13 14 13
3 3 3 4 4 4 4 4 4 5 5 7 6 5 1 3 9 9 8 8 7 7 7 7 7 6 6 9 11 9 8 6 6 7 9 8 11 13 12 10 9 10 9 9 10 12 14
3 3 3 4 4 4 4 4 4 4 5 6 5 8 5 4 5 7 9 8 7 6 6 6 7 7 7 8 9 9 9 7 7 7 1 6 11 12 13 12 10 10 9 9 10 13 13
3 3 3 3 4 4 4 4 5 5 5 5 4 7 5 8 7 7 8 7 8 7 6 5 7 7 8 10 8 8 7 7 6 5 7 8 11 10 9 8 8 9 9 8 10 10 12
3 3 3 3 3 4 4 4 5 5 5 5 6 6 6 7 6 6 7 7 7 7 6 7 7 6 6 9 9 10 8 9 9 7 8 8 11 10 11 8 8 9 8 8 8 9 10
4 3 3 3 4 4 4 4 4 5 6 5 3 2 5 7 7 7 7 7 6 5 5 5 5 6 7 7 6 6 6 6 7 8 9 9 10 12 14 10 10 12 10 9 9 9 10
4 4 3 3 4 4 4 4 4 4 5 6 5 4 6 8 7 7 6 5 6 6 7 5 5 6 5 4 5 5 6 7 7 7 7 9 10 11 13 12 16 10 8 8 8 8 8
5 4 4 4 4 4 4 4 4 4 4 5 4 4 5 8 6 6 6 6 6 5 6 5 5 4 4 5 8 10 9 9 8 6 7 8 10 12 13 13 11 9 8 9 10 10 7
5 4 4 4 4 4 4 4 4 4 5 5 4 2 4 7 7 5 6 6 8 8 7 6 4 4 6 7 9 13 13 11 11 9 7 8 9 10 12 15 15 12 7 6 7 14 7
4 4 4 4 4 4 4 4 4 4 5 5 5 3 3 6 5 5 7 7 5 6 7 6 5 5 5 8 10 11 11 9 11 12 11 11 11 12 12 13 12 8 7 6 14 14 7
5 4 4 4 4 4 4 4 3 3 3 4 5 3 2 5 5 4 3 5 5 6 8 6 7 6 7 9 10 10 10 9 10 10 11 12 13 13 13 15 16 7 8 12 10 8 6
6 6 5 5 4 4 3 3 3 3 3 3 5 3 1 4 4 2 2 2 3 3 5 5 6 6 7 9 9 9 11 10 11 13 8 12 11 12 11 12 8 6 7 6 6 6 6